星链-1114 (STARLINK-1114 )

导读

STARLINK-1114是美国太空探索技术公司(SpaceX)星链计划中的卫星,于2020年1月7日发射升空,归属于美国。星链计划旨在搭建全球卫星互联网,为全球范围提供高速互联网接入服务,该卫星承担着组网后通信传输的任务,是星链星座构建过程中的组成单元之一。

基本信息
目录编号:
44927
目录名称:
STARLINK-1114
国际标识:
2020-001P
轨道中心:
EARTH
卫星名称:
星链-1114
卫星全名:
星链-1114 (STARLINK-1114 )
卫星状态:
在轨 (已飞行2442 天)
发射日期:
2020-01-07 UTC
国别 :
美国 (US)
星等 :
--
该卫星已列入 空间交会检测服务 Space Conjunction Data Service (SCDS) ,当前飞行风险评估等级: 无高风险
轨道信息
数据来源 国际轨道数据
星历时间: 2026-09-14T04:35:15+0800
4小时前
查看轨道信息
半长轴: 6701.535km
偏心率: 0.0004664
轨道倾角: 53.034°
近地点辐角 128.077°
升交点赤经 123.303°
平近点角 232.068°
近地点: 320.272km
远地点: 326.524km
周期: 90.996分钟
每日圈数: 15.824916
详细信息
固有亮度:
5
最大亮度:
2.5
卫星平台:
Starlink V1.0
覆盖范围:
全球
运营商:
太空探索技术公司
运营商所在国:
美国
制造商(研发单位):
太空探索技术公司
制造商所在国:
美国
使用方式:
暂无
卫星简介
星链(Starlink)计划是由太空探索技术公司(SpaceX)提出的一个巨型低轨卫星互联网星座项目,计划在2019年至2024年间在太空搭建由约1.2万颗卫星组成的“星链”网络,其中1584颗将部署在地球上空550千米处的近地轨道,并从2020年开始工作。该卫星仍在工作。
2D轨道图
3D轨道图
轨道高度分析图
轨道倾角分析图
轨道综合分析图
查看轨道综合分析图
与全量物体交会距离演化趋势
与全量物体交会风险概率演化趋势